This is the latest recevied weather packets stored in our database for station/object OK2ILA-1. If no packets are shown the sender has not sent any weather packets the latest 10 day(s).
| Time | Temp. | Humidity | Pressure | Rain* | Wind** | Luminosity | Snow |
|---|---|---|---|---|---|---|---|
| 1777526069 | -0.56° C | 100% | 1032.2 hPa | 0 mm | - | - | - |
| 1777525348 | -0.56° C | 100% | 1032.2 hPa | 0 mm | - | - | - |
| 1777524627 | -1.11° C | 100% | 1032.1 hPa | 0 mm | - | - | - |
| 1777523907 | -1.67° C | 100% | 1031.9 hPa | 0 mm | - | - | - |
| 1777523186 | -1.67° C | 100% | 1031.8 hPa | 0 mm | - | - | - |
| 1777522465 | -2.22° C | 100% | 1031.9 hPa | 0 mm | - | - | - |
| 1777521745 | -2.22° C | 100% | 1031.8 hPa | 0 mm | - | - | - |
| 1777521024 | -2.22° C | 100% | 1031.8 hPa | 0 mm | - | - | - |
| 1777520303 | -2.22° C | 100% | 1031.8 hPa | 0 mm | - | - | - |
| 1777519583 | -1.67° C | 100% | 1031.8 hPa | 0 mm | - | - | - |
| 1777518862 | -1.67° C | 100% | 1031.8 hPa | 0 mm | - | - | - |
| 1777518141 | -1.67° C | 100% | 1031.6 hPa | 0 mm | - | - | - |
| 1777517421 | -1.11° C | 100% | 1031.6 hPa | 0 mm | - | - | - |
| 1777516700 | -1.11° C | 100% | 1031.7 hPa | 0 mm | - | - | - |
| 1777515979 | -1.11° C | 100% | 1031.6 hPa | 0 mm | - | - | - |
| 1777515258 | -1.11° C | 100% | 1031.6 hPa | 0 mm | - | - | - |
| 1777514538 | -1.11° C | 100% | 1031.5 hPa | 0 mm | - | - | - |
| 1777513817 | -1.11° C | 100% | 1031.5 hPa | 0 mm | - | - | - |
| 1777513096 | -1.11° C | 100% | 1031.4 hPa | 0 mm | - | - | - |
| 1777512376 | -0.56° C | 100% | 1031.3 hPa | 0 mm | - | - | - |
| 1777511655 | -0.56° C | 100% | 1031.3 hPa | 0 mm | - | - | - |
| 1777510934 | -1.11° C | 100% | 1031.3 hPa | 0 mm | - | - | - |
| 1777510214 | -0.56° C | 100% | 1031.3 hPa | 0 mm | - | - | - |
| 1777507331 | 0° C | 100% | 1031.1 hPa | 0 mm | - | - | - |
| 1777505890 | 0° C | 100% | 1031.1 hPa | 0 mm | - | - | - |
* Rain latest hour (hover to see other rain measurements)
** Current wind speed in m/s (hover to see current wind gust speed)